www.pogodaiklimat.ru

Погода и климат >> Архив погоды >> Россия >> Забайкальский край >> Забайкальск


ПОГОДА в Забайкальске

  • Прогноз погоды в Забайкальске
  • Монитор погоды в Забайкальске
  • Климат города

АРХИВ ПОГОДЫ в Забайкальске

Время (UTC), дата Ветер
(напр.,м/с)
 
Видим.   Явления Облачность Т
(С)
Тd
(С)
f
(%)
Тe
(С)
Тes
(С)
Комфортность P
(гПа)
Po
(гПа)
Тmin
(С)
Tmax
(С)
R
(мм)
R24
(мм)
S
(см)
18 11.12 С 5 20 км ясно -30.2 -34.2 68 -43 -43 опасность
обморожения
1040.7 944.9
21 11.12 З 3 20 км ясно -29.7 -33.8 67 -39 -39 опасность
обморожения
1040.5 944.9
00 12.12 С 7
{8}
50 км ясно -28.5 -33.0 65 -43 -43 опасность
обморожения
1040.6 945.3 -31.6
03 12.12 С 7 50 км ясно -25.2 -30.2 63 -38 -38 опасность
обморожения
1039.1 945.3
06 12.12 З 3 50 км ясно -23.1 -28.3 62 -31 -30 опасность
обморожения
1038.4 945.4
09 12.12 З 6 50 км ясно -29.8 -33.8 68 -43 -43 опасность
обморожения
1041.8 946.0
12 12.12 З 3
{8}
20 км ясно -28.9 -33.2 66 -38 -38 опасность
обморожения
1043.7 948.0 -22.3
15 12.12 СЗ 2 20 км ясно -31.9 -36.0 67 -40 -40 опасность
обморожения
1044.0 947.2
18 12.12 С 1 20 км ясно -35.0 -38.7 69 -40 -40 опасность
обморожения
1046.2 948.1
21 12.12 С 1 20 км ясно -30.3 -36.1 57 -34 -34 опасность
обморожения
1044.2 948.1
00 13.12 штиль 0
{5}
50 км 3/0
[Ci sp]
-33.5 -37.0 71 -34 -34 опасность
обморожения
1046.2 948.6 -35.6 4
03 13.12 ЮВ 1 10 км дым 4/0
[Ci sp]
-25.8 -30.7 63 -29 -28 1043.4 949.0
06 13.12 Ю 2 20 км дым 6/0
[Ci sp]
-23.1 -28.0 64 -29 -28 1041.2 947.9
09 13.12 Ю 2 10 км дым 6/0
[Ci sp]
-29.1 -32.5 72 -36 -36 опасность
обморожения
1043.2 947.6
12 13.12 штиль 0
{5}
10 км дым 6/0
[Ci sp]
-29.8 -32.9 74 -30 -30 1043.3 947.4 -23.0
15 13.12 ЮЗ 1 10 км дым 9/0
[Ci sp]
-29.1 -32.0 76 -33 -33 опасность
обморожения
1042.3 946.8
18 13.12 штиль 0 20 км 4/0
[Ci sp]
-32.9 -36.1 73 -33 -33 опасность
обморожения
1042.9 945.9
21 13.12 С 3 20 км 3/0
[Ci sp]
-34.5 -37.9 71 -45 -45 опасность
обморожения
1042.3 944.7
00 14.12 СЗ 2
{4}
20 км 4/0
[Ac lent Ci sp]
-35.4 -38.9 70 -44 -44 опасность
обморожения
1041.9 944.1 -36.1 3
03 14.12 СЗ 4 20 км 5/0
[Ac lent Ci sp]
-26.3 -29.0 78 -37 -36 опасность
обморожения
1037.6 943.6
06 14.12 З 1 50 км 10/0
[Ac As]
-23.4 -27.1 72 -27 -26 1035.2 942.4
09 14.12 З 3 50 км 9/0
[Ac As Ci sp]
-26.8 -30.0 74 -36 -36 опасность
обморожения
1036.4 942.3
12 14.12 СЗ 2
{5}
20 км 10 баллов -28.1 -31.0 76 -35 -35 опасность
обморожения
1037.6 942.7 -23.3
15 14.12 штиль 0 20 км ясно -31.2 -34.2 75 -31 -31 опасность
обморожения
1037.6 941.7
18 14.12 З 2 20 км 4/0
[Ci sp]
-28.2 -30.8 78 -35 -35 опасность
обморожения
1035.2 940.7
21 14.12 СЗ 5 20 км 10/0
[As trans]
-22.4 -24.7 81 -33 -33 опасность
обморожения
1031.8 939.6
00 15.12 ЮЗ 1
{8}
10 км слабый снег 10/0
[Ac As]
-25.3 -27.7 80 -29 -29 1033.5 940.2 -31.4 0.0 3
03 15.12 СЗ 5 20 км {снег} 8/0
[Ac und Ci sp]
-22.0 -25.1 76 -33 -32 опасность
обморожения
1032.4 940.4
06 15.12 СЗ 6 50 км 4/0
[Ci sp]
-21.3 -25.0 72 -33 -32 опасность
обморожения
1031.4 939.6
09 15.12 С 4 50 км 8/0
[Ac und Ci sp]
-23.4 -27.0 72 -33 -33 опасность
обморожения
1033.5 940.8
12 15.12 С 5
{10}
20 км 3/0
[Ci sp]
-24.6 -28.4 71 -36 -36 опасность
обморожения
1035.2 941.9 -20.9 0.0
15 15.12 З 6 20 км 1/0
[Ci fib]
-25.5 -29.4 70 -38 -38 опасность
обморожения
1036.3 942.6
18 15.12 С 4 20 км ясно -24.7 -28.1 73 -35 -35 опасность
обморожения
1035.9 942.5
21 15.12 СЗ 5 20 км ясно -24.1 -27.5 73 -35 -35 опасность
обморожения
1034.5 941.5
00 16.12 СЗ 7-11
{11}
50 км 1/0
[Ac lent]
-22.3 -26.1 71 -35 -35 опасность
обморожения
1033.8 941.5 -27.7 3
03 16.12 СЗ 2
{11}
50 км ясно -20.5 -24.6 70 -26 -25 1033.5 941.8
06 16.12 З 5
{10}
50 км ясно -19.5 -23.3 72 -29 -29 1031.3 940.2
09 16.12 З 3 50 км 3/0
[Ci sp]
-24.1 -26.8 78 -33 -33 опасность
обморожения
1032.9 940.1
12 16.12 ЮЗ 1
{11}
20 км 7 баллов -20.9 -23.4 80 -24 -24 1031.8 940.0 -18.1
15 16.12 В 1 20 км 10/0
[As trans]
-21.9 -24.3 81 -25 -25 1027.9 936.3
18 16.12 СЗ 3 20 км ясно -19.6 -22.0 81 -27 -27 1025.0 934.4
21 16.12 СЗ 3 20 км ясно -19.0 -21.0 84 -26 -26 1023.3 933.1
00 17.12 С 1
{9}
50 км 5/0
[Ci sp]
-20.8 -22.7 85 -24 -24 1023.7 932.8 -21.9 3
03 17.12 СЗ 2 50 км 8/0
[Ac und Ci sp]
-16.9 -19.4 81 -22 -21 1022.5 933.1
06 17.12 С 4 50 км 10/0
[As trans]
-13.9 -17.0 77 -21 -21 1021.0 932.6
09 17.12 З 1 50 км 10/0
[Ac As]
-16.4 -19.3 78 -19 -19 1023.1 933.8
12 17.12 СЗ 3
{7}
20 км ясно -22.0 -24.1 83 -30 -30 1027.8 936.0 -13.9
15 17.12 СЗ 2 20 км 10/0
[Ac As]
-18.7 -20.5 86 -24 -24 1025.2 934.9
18 17.12 СЗ 3 20 км 10/0
[Ac As]
-18.8 -20.5 86 -26 -26 1025.2 934.8
21 17.12 С 5 20 км 10/0
[Ac As]
-17.5 -19.4 85 -27 -27 1025.2 935.3
00 18.12 СВ 2
{10}
50 км 6/0
[Ac lent Ci sp]
-22.7 -25.8 76 -29 -29 1031.0 938.8 -23.6 3
03 18.12 СЗ 8
{11}
50 км ясно -20.4 -24.7 68 -33 -33 опасность
обморожения
1034.5 942.7 -23.6
06 18.12 СЗ 5
{11}
50 км ясно -19.0 -24.3 63 -29 -28 1033.8 942.6
09 18.12 СЗ 3
{10}
50 км ясно -22.3 -27.2 64 -30 -30 1036.0 943.5
12 18.12 С 3
{11}
20 км ясно -27.1 -30.7 71 -36 -36 опасность
обморожения
1040.0 945.3 -18.6
15 18.12 СЗ 4 20 км ясно -24.5 -29.4 64 -34 -34 опасность
обморожения
1036.2 942.9

 

Местоположение метеостанции Забайкальск (Забайкальский край, Россия): широта 49.63 долгота 117.30 высота над уровнем моря 694 м.

В архиве по умолчанию представлена погода в Забайкальске за последнюю неделю. Архивные данные за месяц целиком и за предыдущие месяцы, начиная с января 2011 года, Вы можете получить, выбрав интересующий диапазон дат из раскрывающегося списка и нажав кнопку "Ввод!".

Внимание! Время в таблицах - всемирное. Для получения местного времени необходимо прибавить поправку, которая в Забайкальске равна 9 ч.

Смотрите также архив погоды в соседних городах и на ближайших метеорологических станциях:

Погода в Кайластуе (Забайкальский край, Россия) (75 км)
Погода в Борзе (Забайкальский край, Россия) (103 км)
Погода в Xin Barag Youqi (Китай) (113 км)
Погода в Соловьевске (Забайкальский край, Россия) (119 км)
Погода в Приаргунске (Забайкальский край, Россия) (149 км)
Погода в Александровском Заводе (Забайкальский край, Россия) (150 км)
Погода в Бырке (Забайкальский край, Россия) (154 км)
Погода в Hailar (Китай) (183 км)
Погода в Нижнем Цасучее (Забайкальский край, Россия) (184 км)
Погода в Оловянной (Забайкальский край, Россия) (195 км)

Пояснения к столбцам:

Ветер - указаны скорость ветра в м/с - средняя за 10 мин, порывы в срок и между сроками (в фигурных скобках) и направление, откуда дует ветер: С - северный, СВ - северо-восточный, В - восточный, ЮВ - юго-восточный, Ю - южный, ЮЗ - юго-западный, З - западный, СЗ - северо-западный.
Видимость - горизонтальная дальность видимости в метрах или километрах. При видимости от 1 до 10 км при отсутствии осадков обычно наблюдается дымка, при ухудшении видимости до 1 км и менее - туман. В сухую погоду видимость может ухудшаться дымом, пылью или мглою.
Явления - указаны атмосферные явления, наблюдавшиеся в срок или в последний час перед сроком; фигурными скобками обозначены явления, наблюдавшиеся между сроками (за 1-3 часа до срока); квадратными скобками обозначены град или гололедные отложения с указанием их диаметра в мм.
Облачность - указаны через наклонную черту общая и нижняя облачность в баллах и высота нижней границы облаков в метрах; квадратными скобками обозначены формы облаков: Ci - перистые, Cs - перисто-слоистые, Cc - перисто-кучевые, Ac - высококучевые, As - высокослоистые, Sc - слоисто-кучевые, Ns - слоисто-дождевые, Cu - кучевые, Cb - кучево-дождевые. Подробнее классификацию облаков см. в Атласе облаков (PDF).
T - Температура воздуха - температура, измеренная на высоте 2 м над землей.
Td - Температура точки росы - температура, при понижении до которой содержащийся в воздухе водяной пар достигнет насыщения.
f - Относительная влажность воздуха - влажноcть воздуха, измеренная на высоте 2 м над землей.
Te - Эффективная температура - температура, которую ощущает одетый по сезону человек в тени. Характеристика душности погоды. При расчете учитывается влияние влажности воздуха и скорости ветра на теплоощущения человека.
Tes - Эффективная температура на солнце - температура, которую ощущает человек, с поправкой на солнечный нагрев. Характеристика знойности погоды. Зависит от высоты солнца над горизонтом, облачности и скорости ветра. Ночью, в пасмурную погоду, а также при ветре 12 м/с и более поправка равна нулю.
P - Атмосферное давление - приведенное к уровню моря атмосферное давление.
Po - Атмосферное давление - измеренное на уровне метеостанции атмосферное давление.
Tmin - Минимальная температура - минимум температуры воздуха на высоте 2 м над землей.
Tmax - Максимальная температура - максимум температуры воздуха на высоте 2 м над землей.
R - Количество осадков - Количество выпавших осадков за период времени, мм. При наведении курсора мыши на число - период времени, за который выпало указанное количество осадков.
R24 - Количество осадков - Количество выпавших осадков за 24 часа, мм.
S - Снежный покров - Высота снежного покрова, см. При наведении курсора мыши на число - состояние снежного покрова и степень покрытия местности в баллах.